M I D A S
Marine Information and Data Acquisition System
Tripno 822 of the Zeeleeuw from 2004-12-17 08:20:03 to 2004-12-17 16:27:23
Back to CruiseResearch ActivitiesStationsMapUnderway DataData graphs

EquipmentUnitsComment
TimeDGPSUTC
LatitudeDGPSDM.mWGS84
LongitudeDGPSDM.mWGS84
TemperatureSBE03/SBE38deg celciusITS90
ConductivitySBE21S/mITS90
SalinitySBE21 Practical Salinity Units
ChlorophylAChelsea fluorimeterg/lCalibrated in Aceton
Missing or incorrect values are displayed as -999
Sea surface data collected by the RV Zeeleeuw from 2004-12-17 06:34:48 to 2004-12-17 17:09:45
Time Latitude Longitude Temperature Conductivity Salinity ChlorophylA
2004-12-17 06:35:53 51°13.599 2°56.104 12.913969 0.068565 0.35522 -0.882377
2004-12-17 06:36:53 51°13.596 2°56.102 12.9195 0.068565 0.355215 -0.882377
2004-12-17 06:37:53 51°13.596 2°56.101 12.915424 0.068565 0.355199 -0.882377
2004-12-17 06:38:53 51°13.595 2°56.101 12.914745 0.068565 0.355188 -0.882377
2004-12-17 06:39:53 51°13.595 2°56.101 12.915133 0.068565 0.355177 -0.882377
2004-12-17 06:40:53 51°13.595 2°56.101 12.920421 0.068565 0.355167 -0.882377
2004-12-17 06:41:53 51°13.596 2°56.101 12.918141 0.068565 0.355151 -0.848668
2004-12-17 06:42:53 51°13.596 2°56.101 12.920907 0.068565 0.355145 -0.848668
2004-12-17 06:43:53 51°13.596 2°56.101 12.916443 0.068565 0.35513 -0.848668
2004-12-17 06:44:53 51°13.596 2°56.102 12.916103 0.068565 0.355119 -0.882377
2004-12-17 06:45:53 51°13.594 2°56.102 12.911979 0.068565 0.355103 -0.882377
2004-12-17 06:46:53 51°13.593 2°56.102 12.916395 0.068565 0.355092 -0.882377
2004-12-17 06:47:53 51°13.594 2°56.102 12.916443 0.068565 0.355082 -0.848668
2004-12-17 06:48:53 51°13.594 2°56.102 12.914794 0.068565 0.355071 -0.882377
2004-12-17 06:49:53 51°13.595 2°56.102 12.914745 0.068565 0.35506 -0.882377
2004-12-17 06:50:53 51°13.596 2°56.102 12.918481 0.068565 0.355045 -0.882377
2004-12-17 06:51:53 51°13.596 2°56.102 12.918869 0.068565 0.355039 -0.882377
2004-12-17 06:52:53 51°13.595 2°56.102 12.914891 0.068565 0.355023 -0.882377
2004-12-17 06:53:53 51°13.594 2°56.102 12.917268 0.068565 0.355013 -0.882377
2004-12-17 06:54:53 51°13.595 2°56.103 12.921101 0.068565 0.355002 -0.882377
2004-12-17 06:55:53 51°13.594 2°56.104 12.921101 0.068565 0.354991 -0.882377
2004-12-17 06:56:53 51°13.592 2°56.103 12.923575 0.068565 0.354981 -0.848668
2004-12-17 06:57:53 51°13.592 2°56.102 12.916006 0.068565 0.354965 -0.848668
2004-12-17 06:58:53 51°13.591 2°56.102 12.918772 0.068669 0.355509 -0.848668
2004-12-17 06:59:53 51°13.593 2°56.102 12.919548 0.068565 0.354944 -0.882377
2004-12-17 07:00:53 51°13.593 2°56.102 12.921586 0.068565 0.354938 -0.882377
2004-12-17 07:01:53 51°13.594 2°56.102 12.916589 0.068565 0.354922 -0.882377
2004-12-17 07:02:53 51°13.594 2°56.102 12.924642 0.068565 0.354912 -0.848668
2004-12-17 07:03:53 51°13.595 2°56.102 12.921489 0.068669 0.355456 -0.848668
2004-12-17 07:04:53 51°13.596 2°56.102 12.919694 0.068669 0.35544 -0.882377
2004-12-17 07:05:53 51°13.597 2°56.102 12.917219 0.068669 0.355434 -0.848668
2004-12-17 07:06:53 51°13.596 2°56.102 12.919306 0.068669 0.355418 -0.882377
2004-12-17 07:07:53 51°13.596 2°56.101 12.913629 0.068669 0.355408 -0.882377
2004-12-17 07:08:54 51°13.596 2°56.101 12.9195 0.068669 0.355397 -0.882377
2004-12-17 07:09:53 51°13.596 2°56.101 12.922993 0.068669 0.355387 -0.882377
2004-12-17 07:10:54 51°13.596 2°56.101 12.925321 0.068669 0.355381 -0.882377
2004-12-17 07:11:53 51°13.596 2°56.102 12.93153 0.068669 0.355376 -0.882377
2004-12-17 07:12:54 51°13.596 2°56.101 12.931724 0.068669 0.355365 -0.882377
2004-12-17 07:13:53 51°13.596 2°56.102 12.9325 0.068669 0.355371 -0.848668
2004-12-17 07:14:53 51°13.596 2°56.102 12.938175 0.068669 0.355365 -0.848668
2004-12-17 07:15:54 51°13.596 2°56.102 12.921537 0.068669 0.355365 -0.848668
2004-12-17 07:16:53 51°13.596 2°56.101 12.926146 0.068669 0.355365 -0.882377
2004-12-17 07:17:53 51°13.597 2°56.101 12.931094 0.068669 0.35536 -0.882377
2004-12-17 07:18:53 51°13.596 2°56.102 12.94642 0.068669 0.35536 -0.848668
2004-12-17 07:19:53 51°13.596 2°56.102 12.936332 0.068669 0.35536 -0.882377
2004-12-17 07:20:54 51°13.596 2°56.102 12.936138 0.068669 0.355355 -0.848668
2004-12-17 07:21:53 51°13.596 2°56.102 12.931676 0.068669 0.35536 -0.848668
2004-12-17 07:22:53 51°13.595 2°56.101 12.938418 0.068669 0.35536 -0.882377
2004-12-17 07:23:54 51°13.595 2°56.101 12.936138 0.068669 0.35536 -0.848668
2004-12-17 07:24:53 51°13.595 2°56.102 12.936187 0.068669 0.35536 -0.848668
2004-12-17 07:25:54 51°13.595 2°56.102 12.924836 0.068669 0.35536 -0.916087
2004-12-17 07:26:53 51°13.595 2°56.102 12.929735 0.068669 0.35536 -0.848668
2004-12-17 07:27:54 51°13.594 2°56.102 12.932355 0.068669 0.355355 -0.882377
2004-12-17 07:28:54 51°13.595 2°56.102 12.93347 0.068669 0.355355 -0.882377
2004-12-17 07:29:53 51°13.596 2°56.101 12.935459 0.068669 0.35536 -0.882377
2004-12-17 07:30:54 51°13.596 2°56.101 12.938854 0.068669 0.35536 -0.882377
2004-12-17 07:31:54 51°13.595 2°56.101 12.948117 0.068669 0.355365 -0.848668
2004-12-17 07:32:54 51°13.595 2°56.101 12.948602 0.068669 0.355371 -0.848668
2004-12-17 07:33:54 51°13.595 2°56.102 12.972069 0.068669 0.355371 -0.882377
2004-12-17 07:34:54 51°13.596 2°56.102 12.984527 0.068669 0.355371 -0.882377
2004-12-17 07:35:54 51°13.596 2°56.102 12.992136 0.068669 0.355376 -0.882377
2004-12-17 07:36:51 51°13.596 2°56.103 12.991845 0.068669 0.355376 -0.916087
2004-12-17 07:37:51 51°13.595 2°56.103 12.997564 0.068669 0.355376 -0.848668
2004-12-17 07:38:51 51°13.595 2°56.102 13.005075 0.068669 0.355376 -0.848668
2004-12-17 07:39:51 51°13.595 2°56.102 13.00837 0.068669 0.355381 -0.882377
2004-12-17 07:40:51 51°13.595 2°56.103 13.018205 0.068669 0.355376 -0.916087
2004-12-17 07:41:51 51°13.595 2°56.103 13.026149 0.068669 0.355371 -0.916087
2004-12-17 07:42:51 51°13.595 2°56.103 13.033705 0.068669 0.355376 -0.848668
2004-12-17 07:43:51 51°13.594 2°56.103 13.036272 0.068669 0.355376 -0.882377
2004-12-17 07:44:51 51°13.595 2°56.104 13.037774 0.068669 0.355371 -0.882377
2004-12-17 07:45:51 51°13.595 2°56.104 13.045425 0.068669 0.355371 -0.882377
2004-12-17 07:46:51 51°13.594 2°56.104 13.056853 0.068669 0.355371 -0.882377
2004-12-17 07:47:51 51°13.594 2°56.103 13.066681 0.068669 0.355371 -0.848668
2004-12-17 07:48:51 51°13.593 2°56.103 13.082897 0.068669 0.355371 -0.882377
2004-12-17 07:49:51 51°13.593 2°56.103 13.09306 0.068669 0.355365 -0.882377
2004-12-17 07:50:51 51°13.593 2°56.102 13.118026 0.068669 0.355371 -0.882377
2004-12-17 07:51:51 51°13.593 2°56.103 13.137808 0.068669 0.355376 -0.882377
2004-12-17 07:52:51 51°13.593 2°56.103 13.160727 0.068669 0.355376 -0.882377
2004-12-17 07:53:51 51°13.593 2°56.104 13.171507 0.068669 0.355387 -0.916087
2004-12-17 07:54:51 51°13.593 2°56.103 13.188568 0.068669 0.355397 -0.882377
2004-12-17 07:55:51 51°13.593 2°56.104 13.203258 0.068669 0.355408 -0.882377
2004-12-17 07:56:51 51°13.594 2°56.102 13.208379 0.068669 0.355429 -0.848668
2004-12-17 07:57:51 51°13.594 2°56.103 13.219683 0.068669 0.35545 -0.848668
2004-12-17 07:58:51 51°13.594 2°56.102 13.227894 0.068565 0.354912 -0.848668
2004-12-17 07:59:49 51°13.595 2°56.102 13.234945 0.068565 0.354938 -0.882377
2004-12-17 08:00:50 51°13.595 2°56.102 13.25368 0.068565 0.35496 -0.848668
2004-12-17 08:01:51 51°13.596 2°56.101 13.264445 0.068565 0.354991 -0.848668
2004-12-17 08:02:51 51°13.596 2°56.101 13.285971 0.068565 0.355023 -0.882377
2004-12-17 08:03:48 51°13.593 2°56.102 13.293499 0.068565 0.35506 -0.916087
2004-12-17 08:04:51 51°13.596 2°56.101 13.31516 0.068565 0.355092 -0.882377
2004-12-17 08:05:51 51°13.595 2°56.101 13.327411 0.068565 0.35513 -0.882377
2004-12-17 08:06:51 51°13.595 2°56.101 13.333584 0.068565 0.355167 -0.882377
2004-12-17 08:07:49 51°13.595 2°56.101 13.355137 0.068565 0.355209 -0.882377
2004-12-17 08:08:51 51°13.595 2°56.103 13.364296 0.068565 0.355257 -0.882377
2004-12-17 08:09:51 51°13.595 2°56.103 13.383863 0.068565 0.355284 -0.848668
2004-12-17 08:10:51 51°13.595 2°56.103 13.389645 0.068565 0.355326 -0.848668
2004-12-17 08:11:51 51°13.595 2°56.103 13.407712 0.068565 0.355369 -0.882377
2004-12-17 08:12:51 51°13.595 2°56.103 13.422065 0.068461 0.354862 -0.882377
2004-12-17 08:13:51 51°13.595 2°56.103 13.435212 0.068461 0.354904 -0.882377
2004-12-17 08:14:51 51°13.595 2°56.104 13.447875 0.068461 0.354931 -0.848668
2004-12-17 08:15:51 51°13.595 2°56.103 13.451919 0.068461 0.354968 -0.848668
2004-12-17 08:16:51 51°13.594 2°56.102 13.475504 0.068461 0.355026 -0.848668
2004-12-17 08:17:51 51°13.594 2°56.1 13.491431 0.068461 0.355064 -0.882377
2004-12-17 08:18:48 51°13.594 2°56.1 13.515195 0.068461 0.35509 -0.882377
2004-12-17 08:19:51 51°13.598 2°56.084 13.462846 0.068461 0.355138 -0.848668
2004-12-17 08:20:51 51°13.621 2°56.007 13.552892 0.068357 0.354662 -0.882377
2004-12-17 08:21:51 51°13.652 2°55.913 13.567504 0.068461 0.355181 -0.882377
2004-12-17 08:22:51 51°13.689 2°55.819 13.574713 0.068357 0.354668 -0.882377
2004-12-17 08:23:51 51°13.71 2°55.757 13.75363 0.068357 0.354747 -0.882377
2004-12-17 08:24:51 51°13.708 2°55.737 13.731146 0.068357 0.354785 -0.848668
2004-12-17 08:25:51 51°13.766 2°55.707 13.887179 0.068357 0.354827 -0.882377
2004-12-17 08:26:51 51°13.879 2°55.587 13.680833 0.068357 0.354886 -0.848668
2004-12-17 08:27:51 51°14.032 2°55.478 13.789999 0.068357 0.354939 -0.882377
2004-12-17 08:28:49 51°14.19 2°55.362 13.744139 0.068357 0.354976 -0.882377
2004-12-17 08:29:51 51°14.332 2°55.143 13.653334 0.068357 0.354998 -0.882377
2004-12-17 08:30:51 51°14.487 2°54.909 7.74708 0.153315 0.823116 -0.781249
2004-12-17 08:31:51 51°14.694 2°54.79 6.464554 3.223867 31.492383 2.387435
2004-12-17 08:32:51 51°14.913 2°54.72 6.31527 3.228611 31.987167 1.746956
2004-12-17 08:33:51 51°15.131 2°54.661 6.346 3.267261 32.482346 1.376153
2004-12-17 08:34:51 51°15.35 2°54.606 6.454456 3.326976 33.09978 1.477281
2004-12-17 08:35:51 51°15.573 2°54.549 6.628208 3.388381 33.635292 0.97164
2004-12-17 08:36:51 51°15.797 2°54.494 6.706235 3.413029 33.812707 1.039059
2004-12-17 08:37:51 51°16.018 2°54.426 6.777736 3.432516 33.963065 1.039059
2004-12-17 08:38:51 51°16.176 2°54.349 6.784116 3.443576 34.034868 1.173896
2004-12-17 08:39:51 51°16.261 2°54.307 6.752635 3.435044 33.977372 1.308734
2004-12-17 08:40:51 51°16.282 2°54.304 6.741038 3.434939 33.990535 1.106477
2004-12-17 08:41:51 51°16.298 2°54.309 6.732844 3.432832 33.983389 1.140187
2004-12-17 08:42:51 51°16.316 2°54.313 6.716933 3.430093 33.965915 1.140187
2004-12-17 08:43:51 51°16.353 2°54.315 6.704106 3.427355 33.952646 1.072768
2004-12-17 08:44:51 51°16.4 2°54.313 6.69282 3.425143 33.93842 1.207606
2004-12-17 08:45:51 51°16.447 2°54.311 6.663958 3.411133 33.814531 1.005349
2004-12-17 08:46:51 51°16.492 2°54.34 6.628155 3.401442 33.737237 0.97164
2004-12-17 08:47:51 51°16.505 2°54.405 6.609073 3.399968 33.748711 1.005349
2004-12-17 08:48:51 51°16.502 2°54.474 6.601023 3.39586 33.714357 1.173896
2004-12-17 08:49:51 51°16.499 2°54.545 6.595371 3.398915 33.760646 1.039059
2004-12-17 08:50:49 51°16.496 2°54.618 6.587746 3.399863 33.776994 1.072768
2004-12-17 08:51:51 51°16.49 2°54.696 6.586573 3.39881 33.770427 1.039059
2004-12-17 08:52:51 51°16.486 2°54.771 6.583747 3.390172 33.680201 1.039059
2004-12-17 08:53:51 51°16.489 2°54.845 6.579693 3.388276 33.666847 1.005349
2004-12-17 08:54:51 51°16.49 2°54.919 6.569666 3.390594 33.698293 0.93793
2004-12-17 08:55:51 51°16.49 2°54.994 6.559317 3.3848 33.641095 1.005349
2004-12-17 08:56:51 51°16.489 2°55.068 6.557557 3.382904 33.626891 0.904221
2004-12-17 08:57:51 51°16.487 2°55.141 6.557984 3.384379 33.649041 0.97164
2004-12-17 08:58:51 51°16.489 2°55.215 6.561825 3.378375 33.581111 0.870512
2004-12-17 08:59:51 51°16.491 2°55.29 6.565826 3.387855 33.679 0.93793
2004-12-17 09:00:51 51°16.486 2°55.362 6.588919 3.383642 33.624956 1.039059
2004-12-17 09:01:51 51°16.479 2°55.431 6.602729 3.398283 33.76125 1.072768
2004-12-17 09:02:51 51°16.475 2°55.501 6.600596 3.402075 33.801395 1.072768
2004-12-17 09:03:51 51°16.469 2°55.571 6.607367 3.405235 33.831197 1.173896
2004-12-17 09:04:51 51°16.464 2°55.64 6.607634 3.404182 33.817892 1.106477
2004-12-17 09:05:51 51°16.464 2°55.71 6.618561 3.391436 33.67315 1.207606
2004-12-17 09:06:51 51°16.462 2°55.78 6.621226 3.392489 33.678047 1.039059
2004-12-17 09:07:51 51°16.454 2°55.848 6.610512 3.397967 33.740101 1.207606
2004-12-17 09:08:51 51°16.447 2°55.916 6.603635 3.407763 33.858243 1.173896
2004-12-17 09:09:51 51°16.445 2°55.984 6.594998 3.405972 33.846081 1.207606
2004-12-17 09:10:51 51°16.443 2°56.052 6.558944 3.399442 33.798467 1.140187
2004-12-17 09:11:51 51°16.443 2°56.12 6.530129 3.384906 33.672506 1.140187
2004-12-17 09:12:51 51°16.443 2°56.188 6.50648 3.379745 33.63568 1.005349
2004-12-17 09:13:51 51°16.438 2°56.256 6.485547 3.366263 33.511077 0.904221
2004-12-17 09:14:51 51°16.432 2°56.325 6.465676 3.370266 33.574616 0.93793
2004-12-17 09:15:51 51°16.43 2°56.394 6.449272 3.364157 33.522181 0.870512
2004-12-17 09:16:51 51°16.417 2°56.454 6.431635 3.358153 33.471722 0.803093
2004-12-17 09:17:51 51°16.401 2°56.486 6.429764 3.355836 33.459504 0.93793
2004-12-17 09:18:51 51°16.388 2°56.501 6.428909 3.355731 33.460016 0.904221
2004-12-17 09:19:51 51°16.38 2°56.506 6.426183 3.35394 33.438529 0.97164
2004-12-17 09:20:51 51°16.374 2°56.505 6.431635 3.35236 33.421051 0.836802
2004-12-17 09:21:51 51°16.371 2°56.501 6.428107 3.357732 33.479643 0.904221
2004-12-17 09:22:51 51°16.369 2°56.498 6.42522 3.349411 33.390103 0.803093
2004-12-17 09:23:51 51°16.344 2°56.504 6.423403 3.352465 33.427243 0.904221
2004-12-17 09:24:51 51°16.298 2°56.467 6.420569 3.355309 33.464581 0.803093
2004-12-17 09:25:51 51°16.265 2°56.384 6.439385 3.357311 33.483373 0.870512
2004-12-17 09:26:51 51°16.254 2°56.294 6.51278 3.361207 33.487054 1.039059
2004-12-17 09:27:51 51°16.249 2°56.21 6.559531 3.391437 33.756437 0.97164
2004-12-17 09:28:51 51°16.243 2°56.13 6.578627 3.396914 33.785736 1.241315
2004-12-17 09:29:51 51°16.238 2°56.056 6.590092 3.405446 33.867289 1.173896
2004-12-17 09:30:51 51°16.238 2°55.98 6.567372 3.402286 33.839151 1.140187
2004-12-17 09:31:51 51°16.238 2°55.903 6.525005 3.387329 33.705995 1.072768
2004-12-17 09:32:51 51°16.239 2°55.827 6.498151 3.368053 33.524153 1.005349
2004-12-17 09:33:51 51°16.241 2°55.751 6.491048 3.373952 33.603606 0.870512
2004-12-17 09:34:51 51°16.244 2°55.674 6.48309 3.368054 33.546803 0.870512
2004-12-17 09:35:51 51°16.248 2°55.596 6.484906 3.372372 33.59875 0.904221
2004-12-17 09:36:51 51°16.252 2°55.518 6.49014 3.375111 33.628193 0.836802
2004-12-17 09:37:51 51°16.256 2°55.44 6.507922 3.374795 33.612922 0.836802
2004-12-17 09:38:51 51°16.26 2°55.362 6.525165 3.384274 33.697511 0.97164
2004-12-17 09:39:51 51°16.263 2°55.286 6.527727 3.383432 33.682302 1.039059
2004-12-17 09:40:51 51°16.268 2°55.213 6.547419 3.379429 33.620426 1.376153
2004-12-17 09:41:51 51°16.276 2°55.14 6.549874 3.380587 33.613907 1.039059
2004-12-17 09:42:51 51°16.283 2°55.068 6.553289 3.377111 33.575546 0.97164
2004-12-17 09:43:51 51°16.293 2°54.997 6.561718 3.37669 33.562517 1.039059
2004-12-17 09:44:51 51°16.306 2°54.927 6.555049 3.373425 33.523987 0.93793
2004-12-17 09:45:51 51°16.323 2°54.862 6.542243 3.374794 33.548301 0.97164
2004-12-17 09:46:51 51°16.345 2°54.796 6.561985 3.377743 33.594263 1.005349
2004-12-17 09:47:51 51°16.366 2°54.724 6.541603 3.374689 33.554678 1.072768
2004-12-17 09:48:51 51°16.388 2°54.649 6.530716 3.37174 33.534694 0.97164
2004-12-17 09:49:51 51°16.416 2°54.579 6.522603 3.372688 33.551863 1.039059
2004-12-17 09:50:51 51°16.442 2°54.514 6.509684 3.375953 33.612276 1.072768
2004-12-17 09:51:51 51°16.469 2°54.445 6.500714 3.369423 33.551864 1.106477
2004-12-17 09:52:51 51°16.497 2°54.375 6.496816 3.370581 33.572228 1.072768
2004-12-17 09:53:51 51°16.526 2°54.312 6.492544 3.363735 33.494879 1.005349
2004-12-17 09:54:51 51°16.557 2°54.251 6.487256 3.360259 33.458145 1.072768
2004-12-17 09:55:51 51°16.588 2°54.199 6.473476 3.357521 33.437091 1.072768
2004-12-17 09:56:51 51°16.614 2°54.151 6.450181 3.352254 33.398124 0.904221
2004-12-17 09:57:51 51°16.629 2°54.107 6.428321 3.339194 33.277955 1.039059
2004-12-17 09:58:51 51°16.637 2°54.07 6.41132 3.330452 33.199626 1.005349
2004-12-17 09:59:51 51°16.641 2°54.042 6.410304 3.320973 33.103962 0.97164
2004-12-17 10:00:51 51°16.644 2°54.018 6.405117 3.329715 33.199799 0.904221
2004-12-17 10:01:51 51°16.648 2°53.994 6.397576 3.337299 33.294546 0.97164
2004-12-17 10:02:51 51°16.658 2°53.925 6.398913 3.330663 33.222784 1.005349
2004-12-17 10:03:51 51°16.686 2°53.748 6.40624 3.322764 33.130407 1.106477
2004-12-17 10:04:51 51°16.756 2°53.472 6.448043 3.337298 33.273673 1.072768
2004-12-17 10:05:51 51°16.863 2°53.199 6.475452 3.347409 33.350416 1.207606
2004-12-17 10:06:51 51°16.992 2°52.964 6.611578 3.347514 33.292377 1.106477
2004-12-17 10:07:51 51°17.125 2°52.721 6.715177 3.393226 33.655988 1.140187
2004-12-17 10:08:51 51°17.263 2°52.495 6.825732 3.420297 33.856514 1.005349
2004-12-17 10:09:51 51°17.408 2°52.283 7.101967 3.442416 33.899651 1.173896
2004-12-17 10:10:51 51°17.561 2°52.089 7.231994 3.466221 33.936021 1.072768
2004-12-17 10:11:51 51°17.715 2°51.895 7.139469 3.459268 33.861233 0.97164
2004-12-17 10:12:51 51°17.869 2°51.702 7.059044 3.448314 33.828258 1.106477
2004-12-17 10:13:51 51°18.024 2°51.504 7.048243 3.425982 33.632911 1.645828
2004-12-17 10:14:51 51°18.179 2°51.309 7.053326 3.430933 33.684406 1.645828
2004-12-17 10:15:51 51°18.334 2°51.11 7.064921 3.429563 33.662028 1.780665
2004-12-17 10:16:51 51°18.44 2°50.964 7.065821 3.426192 33.621983 1.746956
2004-12-17 10:17:51 51°18.481 2°50.903 7.06815 3.418292 33.53508 1.443571
2004-12-17 10:18:51 51°18.494 2°50.877 7.05788 3.417765 33.529343 1.376153
2004-12-17 10:19:51 51°18.503 2°50.851 7.064974 3.426719 33.615332 1.173896
2004-12-17 10:20:51 51°18.535 2°50.786 7.059997 3.407126 33.415944 1.275024
2004-12-17 10:21:51 51°18.589 2°50.745 7.057297 3.405441 33.404982 1.173896
2004-12-17 10:22:51 51°18.642 2°50.736 7.055126 3.410918 33.462994 1.173896
2004-12-17 10:23:51 51°18.69 2°50.748 7.059521 3.402702 33.370238 1.241315
2004-12-17 10:24:51 51°18.727 2°50.787 7.062856 3.428299 33.642462 1.173896
2004-12-17 10:25:51 51°18.758 2°50.833 7.060844 3.431249 33.675435 1.140187
2004-12-17 10:26:51 51°18.798 2°50.881 7.06275 3.4303 33.663447 1.039059
2004-12-17 10:27:51 51°18.841 2°50.936 7.056821 3.426719 33.627722 0.93793
2004-12-17 10:28:51 51°18.878 2°50.993 7.057509 3.423769 33.598059 0.803093
2004-12-17 10:29:51 51°18.915 2°51.046 7.052638 3.420715 33.567248 0.803093
2004-12-17 10:30:51 51°18.952 2°51.097 7.054121 3.415553 33.51266 0.735674
2004-12-17 10:31:51 51°18.985 2°51.153 7.045913 3.416607 33.527432 0.870512
2004-12-17 10:32:51 51°19.01 2°51.217 7.042471 3.414394 33.506625 0.836802
2004-12-17 10:33:51 51°19.036 2°51.281 7.039082 3.41155 33.47893 0.803093
2004-12-17 10:34:51 51°19.065 2°51.339 7.040512 3.408285 33.444176 0.769383
2004-12-17 10:35:51 51°19.099 2°51.391 7.042895 3.408074 33.440237 0.803093
2004-12-17 10:36:51 51°19.133 2°51.447 7.037122 3.406284 33.422374 0.803093
2004-12-17 10:37:51 51°19.168 2°51.502 7.036381 3.404072 33.402385 0.870512
2004-12-17 10:38:51 51°19.204 2°51.557 7.035692 3.399647 33.355837 0.803093
2004-12-17 10:39:51 51°19.24 2°51.611 7.03262 3.400911 33.371246 0.870512
2004-12-17 10:40:51 51°19.272 2°51.672 7.028754 3.396909 33.329288 0.93793
2004-12-17 10:41:51 51°19.302 2°51.732 7.026158 3.389219 33.247189 0.97164
2004-12-17 10:42:51 51°19.335 2°51.786 7.024093 3.396171 33.326994 1.005349
2004-12-17 10:43:51 51°19.371 2°51.838 7.02102 3.395434 33.321421 1.005349
2004-12-17 10:44:51 51°19.405 2°51.892 7.015723 3.394802 33.316995 1.005349
2004-12-17 10:45:51 51°19.437 2°51.949 7.012703 3.393328 33.307486 1.039059
2004-12-17 10:46:51 51°19.466 2°52.008 7.00751 3.39238 33.299615 1.072768
2004-12-17 10:47:51 51°19.497 2°52.062 7.002583 3.390694 33.286987 1.039059
2004-12-17 10:48:51 51°19.534 2°52.107 6.995217 3.390378 33.290098 1.106477
2004-12-17 10:49:51 51°19.574 2°52.148 6.99262 3.389009 33.28009 1.005349
2004-12-17 10:50:51 51°19.603 2°52.197 6.985518 3.387324 33.266636 1.072768
2004-12-17 10:51:51 51°19.614 2°52.231 6.981384 3.387534 33.27221 1.072768
2004-12-17 10:52:51 51°19.613 2°52.254 6.977514 3.38764 33.273358 1.072768
2004-12-17 10:53:51 51°19.603 2°52.277 6.975659 3.386797 33.270727 1.039059
2004-12-17 10:54:51 51°19.569 2°52.309 6.974811 3.386903 33.272695 1.072768
2004-12-17 10:55:51 51°19.512 2°52.307 6.971736 3.386692 33.274496 1.173896
2004-12-17 10:56:51 51°19.46 2°52.267 6.972584 3.387535 33.285326 1.140187
2004-12-17 10:57:51 51°19.42 2°52.21 6.973591 3.388272 33.291727 1.173896
2004-12-17 10:58:51 51°19.386 2°52.145 6.988433 3.389009 33.293206 1.072768
2004-12-17 10:59:51 51°19.353 2°52.083 6.984193 3.389536 33.298129 1.140187
2004-12-17 11:00:51 51°19.319 2°52.014 6.990765 3.389114 33.288615 1.039059
2004-12-17 11:01:51 51°19.287 2°51.941 6.98785 3.38922 33.285665 1.039059
2004-12-17 11:02:51 51°19.257 2°51.869 6.988804 3.389641 33.291897 1.072768
2004-12-17 11:03:51 51°19.225 2°51.8 6.991666 3.388588 33.280415 1.072768
2004-12-17 11:04:51 51°19.189 2°51.739 7.001788 3.390273 33.293868 1.106477
2004-12-17 11:05:51 51°19.151 2°51.68 7.00449 3.390905 33.290921 1.039059
2004-12-17 11:06:51 51°19.113 2°51.626 6.998343 3.390378 33.290098 1.072768
2004-12-17 11:07:51 51°19.077 2°51.57 7.006345 3.391537 33.301907 0.97164
2004-12-17 11:08:51 51°19.04 2°51.513 7.013868 3.392274 33.302565 1.039059
2004-12-17 11:09:51 51°19.001 2°51.459 7.014398 3.389852 33.272073 1.039059
2004-12-17 11:10:51 51°18.961 2°51.404 7.019219 3.389746 33.266832 1.005349
2004-12-17 11:11:51 51°18.919 2°51.351 7.014239 3.390062 33.270274 1.005349
2004-12-17 11:12:51 51°18.876 2°51.296 7.016676 3.392485 33.299124 0.93793
2004-12-17 11:13:51 51°18.833 2°51.245 7.015299 3.391958 33.292567 0.904221
2004-12-17 11:14:51 51°18.79 2°51.198 7.014769 3.393222 33.307977 1.005349
2004-12-17 11:15:51 51°18.748 2°51.145 7.015034 3.393012 33.305682 0.904221
2004-12-17 11:16:51 51°18.706 2°51.089 7.018795 3.393433 33.308634 0.93793
2004-12-17 11:17:51 51°18.669 2°51.028 7.029389 3.393327 33.299293 0.97164
2004-12-17 11:18:51 51°18.629 2°50.978 7.027853 3.397857 33.345353 1.039059
2004-12-17 11:19:51 51°18.588 2°50.928 7.02245 3.395223 33.317487 1.039059
2004-12-17 11:20:51 51°18.545 2°50.874 7.026052 3.396698 33.334371 1.039059
2004-12-17 11:21:51 51°18.501 2°50.819 7.028542 3.396171 33.326175 0.97164
2004-12-17 11:22:51 51°18.459 2°50.763 7.029019 3.397225 33.336009 0.93793
2004-12-17 11:23:51 51°18.417 2°50.708 7.038764 3.398278 33.341743 0.97164
2004-12-17 11:24:51 51°18.377 2°50.65 7.034792 3.397962 33.334202 0.836802
2004-12-17 11:25:51 51°18.346 2°50.591 7.034315 3.40186 33.384857 0.904221
2004-12-17 11:26:51 51°18.33 2°50.541 7.03458 3.399121 33.354201 0.836802
2004-12-17 11:27:51 51°18.319 2°50.498 7.061744 3.402281 33.386163 0.904221
2004-12-17 11:28:51 51°18.31 2°50.382 7.03654 3.402597 33.3855 0.93793
2004-12-17 11:29:51 51°18.386 2°50.296 7.039241 3.404071 33.398279 0.93793
2004-12-17 11:30:51 51°18.524 2°50.412 7.044907 3.401754 33.373039 0.97164
2004-12-17 11:31:51 51°18.645 2°50.665 7.036328 3.399015 33.341575 0.93793
2004-12-17 11:32:51 51°18.727 2°50.966 7.020014 3.392274 33.278815 0.97164
2004-12-17 11:33:51 51°18.801 2°51.267 7.003589 3.390168 33.273878 0.97164
2004-12-17 11:34:51 51°18.874 2°51.569 6.986048 3.388272 33.269597 1.039059
2004-12-17 11:35:51 51°18.952 2°51.876 6.973114 3.390695 33.309943 1.241315
2004-12-17 11:36:51 51°19.027 2°52.181 6.948299 3.387008 33.286963 1.477281
2004-12-17 11:37:51 51°19.105 2°52.484 6.909733 3.381636 33.252137 1.814375
2004-12-17 11:38:51 51°19.182 2°52.79 6.846982 3.382269 33.315735 1.848084
2004-12-17 11:39:51 51°19.263 2°53.093 6.768909 3.377741 33.342026 1.780665
2004-12-17 11:40:51 51°19.342 2°53.394 6.756996 3.370157 33.290293 2.016631
2004-12-17 11:41:51 51°19.416 2°53.699 6.734121 3.36784 33.279746 2.286306
2004-12-17 11:42:51 51°19.498 2°53.995 6.690371 3.37416 33.368098 1.780665
2004-12-17 11:43:51 51°19.574 2°54.299 6.58636 3.358994 33.298407 1.949212
2004-12-17 11:44:51 51°19.653 2°54.599 6.531997 3.346144 33.223287 1.949212
2004-12-17 11:45:51 51°19.731 2°54.9 6.440935 3.340984 33.200412 2.218888
2004-12-17 11:46:51 51°19.809 2°55.202 6.445799 3.319814 33.040602 1.848084
2004-12-17 11:47:51 51°19.889 2°55.504 6.436713 3.309071 32.916278 2.016631
2004-12-17 11:48:51 51°19.973 2°55.801 6.419019 3.294537 32.767492 2.117759
2004-12-17 11:49:51 51°20.053 2°56.098 6.380353 3.277582 32.61898 2.117759
2004-12-17 11:50:51 51°20.137 2°56.397 6.3872 3.259994 32.437238 2.387435
2004-12-17 11:51:51 51°20.219 2°56.692 6.37174 3.256308 32.401473 2.589691
2004-12-17 11:52:51 51°20.295 2°56.987 6.34311 3.247041 32.320388 2.6234
2004-12-17 11:53:51 51°20.372 2°57.282 6.348355 3.232719 32.177828 2.65711
2004-12-17 11:54:51 51°20.452 2°57.576 6.350014 3.220188 32.034051 2.724529
2004-12-17 11:55:51 51°20.531 2°57.87 6.345786 3.21924 32.026021 3.129042
2004-12-17 11:56:51 51°20.616 2°58.163 6.33781 3.219451 32.032364 3.061623
2004-12-17 11:57:51 51°20.69 2°58.462 6.335723 3.216713 32.007015 3.162751
2004-12-17 11:58:51 51°20.775 2°58.759 6.323784 3.210921 31.949615 3.162751
2004-12-17 11:59:51 51°20.856 2°59.059 6.321428 3.207236 31.911408 3.23017
2004-12-17 12:00:51 51°20.938 2°59.357 6.320946 3.206604 31.911662 3.432426
2004-12-17 12:01:51 51°21.009 2°59.562 6.312378 3.20534 31.901745 3.331298
2004-12-17 12:02:51 51°21.069 2°59.7 6.310879 3.204393 31.897713 3.23017
2004-12-17 12:03:51 51°21.102 2°59.773 6.312539 3.202813 31.880302 3.297589
2004-12-17 12:04:51 51°21.121 2°59.773 6.316341 3.201865 31.860244 3.398717
2004-12-17 12:05:51 51°21.151 2°59.79 6.313235 3.200391 31.853606 3.263879
2004-12-17 12:06:51 51°21.183 2°59.852 6.312593 3.202497 31.876018 3.297589
2004-12-17 12:07:51 51°21.198 2°59.932 6.318055 3.199443 31.842361 3.365007
2004-12-17 12:08:51 51°21.207 3°0.015 6.324319 3.20176 31.862286 3.398717
2004-12-17 12:09:51 51°21.212 3°0.097 6.3316 3.200496 31.841159 3.499845
2004-12-17 12:10:51 51°21.223 3°0.174 6.340701 3.19997 31.82896 3.466136
2004-12-17 12:11:51 51°21.241 3°0.248 6.347499 3.197969 31.799734 3.466136
2004-12-17 12:12:51 51°21.246 3°0.327 6.356169 3.20176 31.834282 3.432426
2004-12-17 12:13:51 51°21.241 3°0.408 6.372542 3.199864 31.801436 3.365007
2004-12-17 12:14:51 51°21.234 3°0.487 6.388537 3.1986 31.772378 3.398717
2004-12-17 12:15:51 51°21.226 3°0.567 6.398646 3.200074 31.777433 3.365007
2004-12-17 12:16:51 51°21.215 3°0.645 6.409127 3.201338 31.780968 3.297589
2004-12-17 12:17:51 51°21.209 3°0.723 6.414581 3.199758 31.755644 3.331298
2004-12-17 12:18:51 51°21.211 3°0.801 6.427572 3.199337 31.74306 3.432426
2004-12-17 12:19:51 51°21.218 3°0.876 6.437354 3.202707 31.771327 3.331298
2004-12-17 12:20:51 51°21.229 3°0.95 6.511499 3.201758 31.721986 3.263879
2004-12-17 12:21:51 51°21.235 3°1.026 6.53237 3.205338 31.714467 3.19646
2004-12-17 12:22:51 51°21.246 3°1.1 6.53237 3.204706 31.702794 3.19646
2004-12-17 12:23:51 51°21.262 3°1.172 6.532157 3.207339 31.729257 3.23017
2004-12-17 12:24:51 51°21.274 3°1.245 6.533384 3.204285 31.695805 3.162751
2004-12-17 12:25:51 51°21.275 3°1.322 6.535626 3.205759 31.711162 3.23017
2004-12-17 12:26:51 51°21.273 3°1.4 6.540856 3.203969 31.686807 3.19646
2004-12-17 12:27:51 51°21.276 3°1.476 6.539255 3.206075 31.709081 3.331298
2004-12-17 12:28:51 51°21.277 3°1.554 6.54219 3.206918 31.716724 3.432426
2004-12-17 12:29:51 51°21.268 3°1.635 6.552008 3.206391 31.706209 3.499845
2004-12-17 12:30:51 51°21.255 3°1.715 6.562198 3.20618 31.693621 3.499845
2004-12-17 12:31:51 51°21.242 3°1.796 6.572653 3.209971 31.725624 3.533554
2004-12-17 12:32:51 51°21.233 3°1.878 6.58332 3.206917 31.68272 3.499845
2004-12-17 12:33:51 51°21.229 3°1.959 6.592759 3.209128 31.696641 3.499845
2004-12-17 12:34:51 51°21.225 3°2.041 6.599637 3.20955 31.695719 3.432426
2004-12-17 12:35:51 51°21.217 3°2.116 6.597237 3.20976 31.696443 3.129042
2004-12-17 12:36:51 51°21.2 3°2.148 6.59953 3.209339 31.691836 2.893076
2004-12-17 12:37:51 51°21.185 3°2.16 6.601289 3.208286 31.676375 2.6234
2004-12-17 12:38:51 51°21.16 3°2.177 6.603582 3.209339 31.68631 2.65711
2004-12-17 12:39:51 51°21.11 3°2.172 6.603475 3.205759 31.645591 2.690819
2004-12-17 12:40:51 51°21.053 3°2.123 6.608273 3.209234 31.68358 2.960494
2004-12-17 12:41:51 51°21.005 3°2.052 6.612271 3.207759 31.665096 3.297589
2004-12-17 12:42:51 51°20.969 3°1.975 6.610566 3.210392 31.692297 3.297589
2004-12-17 12:43:51 51°20.937 3°1.898 6.619307 3.210602 31.691442 3.095332
2004-12-17 12:44:51 51°20.908 3°1.824 6.616909 3.210286 31.684043 3.095332
2004-12-17 12:45:51 51°20.884 3°1.75 6.623944 3.207233 31.648305 3.162751
2004-12-17 12:46:51 51°20.861 3°1.674 6.619041 3.20976 31.675134 3.19646
2004-12-17 12:47:51 51°20.837 3°1.598 6.620693 3.208602 31.660899 3.129042
2004-12-17 12:48:51 51°20.814 3°1.52 6.616749 3.210286 31.680888 3.162751
2004-12-17 12:49:51 51°20.788 3°1.443 6.619734 3.210181 31.679737 3.095332
2004-12-17 12:50:51 51°20.759 3°1.366 6.617389 3.210392 31.682039 3.095332
2004-12-17 12:51:51 51°20.732 3°1.29 6.624584 3.209339 31.672108 3.331298
2004-12-17 12:52:51 51°20.705 3°1.214 6.623891 3.21155 31.698644 3.297589
2004-12-17 12:53:51 51°20.682 3°1.135 6.617548 3.205021 31.624929 3.162751
2004-12-17 12:54:51 51°20.66 3°1.054 6.615736 3.20976 31.6775 3.061623
2004-12-17 12:55:51 51°20.643 3°0.971 6.614457 3.210076 31.686476 3.095332
2004-12-17 12:56:51 51°20.629 3°0.885 6.61499 3.204074 31.620873 3.095332
2004-12-17 12:57:51 51°20.617 3°0.798 6.606301 3.208707 31.67309 3.095332
2004-12-17 12:58:51 51°20.608 3°0.711 6.606994 3.209865 31.692067 3.129042
2004-12-17 12:59:51 51°20.602 3°0.63 6.593665 3.208497 31.681045 3.19646
2004-12-17 13:00:51 51°20.596 3°0.545 6.596651 3.208918 31.68802 3.23017
2004-12-17 13:01:51 51°20.591 3°0.458 6.588546 3.205864 31.660939 3.23017
2004-12-17 13:02:51 51°20.587 3°0.374 6.587533 3.207128 31.675548 3.533554
2004-12-17 13:03:51 51°20.582 3°0.293 6.583213 3.207233 31.681437 3.533554
2004-12-17 13:04:51 51°20.577 3°0.21 6.57612 3.205232 31.668236 3.533554
2004-12-17 13:05:51 51°20.572 3°0.126 6.570733 3.206391 31.68407 3.567264
2004-12-17 13:06:51 51°20.569 3°0.042 6.563585 3.205022 31.67146 3.365007
2004-12-17 13:07:51 51°20.567 2°59.959 6.560598 3.20597 31.689734 3.23017
2004-12-17 13:08:51 51°20.567 2°59.874 6.553235 3.207339 31.709465 3.297589
2004-12-17 13:09:51 51°20.569 2°59.792 6.538294 3.204285 31.681567 3.263879
2004-12-17 13:10:51 51°20.572 2°59.723 6.522976 3.196914 31.615869 3.19646
2004-12-17 13:11:51 51°20.573 2°59.67 6.503277 3.203022 31.702545 3.331298
2004-12-17 13:12:51 51°20.572 2°59.606 6.49532 3.199126 31.670925 3.263879
2004-12-17 13:13:51 51°20.618 2°59.526 6.476841 3.201442 31.705038 3.331298
2004-12-17 13:14:51 51°20.695 2°59.584 6.460226 3.201969 31.722709 3.129042
2004-12-17 13:15:51 51°20.838 2°59.761 6.440347 3.199758 31.715904 2.926785
2004-12-17 13:16:51 51°20.986 3°0.002 6.434575 3.199758 31.744506 2.724529
2004-12-17 13:17:51 51°21.132 3°0.253 6.425327 3.195019 31.665486 2.758238
2004-12-17 13:18:51 51°21.281 3°0.505 6.453066 3.198495 31.773611 2.589691
2004-12-17 13:19:51 51°21.426 3°0.763 6.522763 3.201337 31.702298 2.488563
2004-12-17 13:20:51 51°21.575 3°1.013 6.587906 3.207549 31.721269 2.488563
2004-12-17 13:21:51 51°21.722 3°1.263 6.64089 3.213761 31.717288 2.421144
2004-12-17 13:22:51 51°21.868 3°1.517 6.702616 3.20997 31.634904 2.65711
2004-12-17 13:23:51 51°22.014 3°1.771 6.735292 3.221342 31.710965 2.6234
2004-12-17 13:24:51 51°22.163 3°2.023 6.753113 3.225765 31.737921 2.65711
2004-12-17 13:25:51 51°22.317 3°2.263 6.788742 3.229556 31.757183 3.027913
2004-12-17 13:26:51 51°22.473 3°2.497 6.8091 3.236822 31.80402 3.297589
2004-12-17 13:27:51 51°22.629 3°2.733 6.812873 3.23461 31.771299 3.129042
2004-12-17 13:28:51 51°22.787 3°2.974 6.805592 3.238717 31.816776 3.061623
2004-12-17 13:29:51 51°22.94 3°3.215 6.787891 3.237875 31.823361 2.488563
2004-12-17 13:30:51 51°23.104 3°3.442 6.727364 3.237454 31.821139 2.151469
2004-12-17 13:31:51 51°23.274 3°3.662 6.650853 3.220395 31.750286 1.881794
2004-12-17 13:32:51 51°23.449 3°3.868 6.713953 3.219026 31.721142 1.713247
2004-12-17 13:33:51 51°23.63 3°4.062 6.741144 3.222185 31.705985 1.746956
2004-12-17 13:34:51 51°23.811 3°4.26 6.726034 3.232084 31.813099 1.848084
2004-12-17 13:35:51 51°23.99 3°4.46 6.718051 3.227556 31.777136 1.814375
2004-12-17 13:36:51 51°24.169 3°4.66 6.709961 3.228503 31.793785 1.915503
2004-12-17 13:37:51 51°24.352 3°4.851 6.706821 3.22903 31.803476 2.08405
2004-12-17 13:38:51 51°24.516 3°5.074 6.702243 3.229241 31.810513 2.252597
2004-12-17 13:39:51 51°24.651 3°5.345 6.706608 3.227977 31.797515 2.555982
2004-12-17 13:40:51 51°24.777 3°5.625 6.717519 3.232716 31.84369 2.859366
2004-12-17 13:41:51 51°24.894 3°5.921 6.73742 3.230609 31.808074 3.23017
2004-12-17 13:42:51 51°25.016 3°6.204 6.755294 3.234506 31.830821 3.297589
2004-12-17 13:43:51 51°25.2 3°6.36 6.778321 3.240297 31.879736 3.19646
2004-12-17 13:44:51 51°25.392 3°6.497 6.809419 3.247879 31.933892 3.23017
2004-12-17 13:45:51 51°25.574 3°6.657 6.838589 3.242403 31.845067 3.095332
2004-12-17 13:46:51 51°25.741 3°6.863 6.849159 3.253987 31.952956 2.893076
2004-12-17 13:47:51 51°25.872 3°7.129 6.848734 3.253144 31.938262 2.758238
2004-12-17 13:48:51 51°26.007 3°7.388 6.841935 3.254513 31.960266 2.218888
2004-12-17 13:49:51 51°26.138 3°7.651 6.853408 3.252934 31.940709 2.488563
2004-12-17 13:50:51 51°26.272 3°7.917 6.867905 3.251249 31.912121 2.758238
2004-12-17 13:51:51 51°26.385 3°8.176 6.884576 3.263991 32.03569 2.589691
2004-12-17 13:52:51 51°26.442 3°8.28 6.880011 3.269994 32.091473 2.218888
2004-12-17 13:53:51 51°26.446 3°8.285 6.883355 3.268098 32.071649 1.409862
2004-12-17 13:54:51 51°26.474 3°8.275 6.886646 3.267677 32.051235 1.409862
2004-12-17 13:55:51 51°26.514 3°8.302 6.90708 3.27189 32.100198 1.915503
2004-12-17 13:56:51 51°26.544 3°8.364 6.908778 3.27884 32.164666 1.881794
2004-12-17 13:57:51 51°26.568 3°8.437 6.90777 3.266834 32.038914 1.207606
2004-12-17 13:58:51 51°26.592 3°8.509 6.908301 3.281157 32.185092 1.780665
2004-12-17 13:59:51 51°26.619 3°8.581 6.927507 3.279788 32.170208 1.409862
2004-12-17 14:00:51 51°26.65 3°8.644 6.923688 3.279893 32.162623 1.645828
2004-12-17 14:01:51 51°26.684 3°8.696 6.912493 3.278314 32.155767 1.173896
2004-12-17 14:02:51 51°26.717 3°8.749 6.927295 3.272521 32.085681 1.106477
2004-12-17 14:03:51 51°26.747 3°8.81 6.934138 3.290635 32.271442 1.106477
2004-12-17 14:04:51 51°26.779 3°8.866 6.936578 3.289161 32.249051 1.106477
2004-12-17 14:05:51 51°26.812 3°8.919 6.939548 3.286107 32.219038 1.106477
2004-12-17 14:06:51 51°26.846 3°8.969 6.956996 3.294005 32.296134 1.106477
2004-12-17 14:07:51 51°26.882 3°9.014 6.957633 3.297481 32.327535 1.106477
2004-12-17 14:08:51 51°26.917 3°9.058 6.973856 3.297059 32.311807 1.072768
2004-12-17 14:09:51 51°26.954 3°9.101 6.987691 3.302957 32.367917 1.039059
2004-12-17 14:10:51 51°26.991 3°9.144 6.989281 3.314226 32.474385 1.106477
2004-12-17 14:11:51 51°27.029 3°9.185 6.990076 3.303905 32.36785 1.039059
2004-12-17 14:12:51 51°27.068 3°9.224 7.034368 3.311593 32.433003 1.039059
2004-12-17 14:13:51 51°27.107 3°9.262 7.077942 3.329813 32.574034 1.072768
2004-12-17 14:14:51 51°27.142 3°9.307 7.076725 3.337186 32.641206 1.039059
2004-12-17 14:15:51 51°27.178 3°9.357 7.083394 3.337923 32.648403 1.005349
2004-12-17 14:16:51 51°27.214 3°9.407 7.103343 3.338239 32.635004 1.173896
2004-12-17 14:17:51 51°27.25 3°9.455 7.113924 3.343505 32.683291 1.207606
2004-12-17 14:18:51 51°27.286 3°9.503 7.124344 3.347508 32.713851 1.409862
2004-12-17 14:19:51 51°27.323 3°9.552 7.132965 3.346349 32.694878 1.51099
2004-12-17 14:20:51 51°27.36 3°9.601 7.140897 3.34993 32.725669 1.612118
2004-12-17 14:21:51 51°27.398 3°9.652 7.146977 3.345295 32.669046 1.51099
2004-12-17 14:22:51 51°27.435 3°9.701 7.159242 3.352563 32.741366 1.207606
2004-12-17 14:23:51 51°27.471 3°9.752 7.16067 3.340345 32.601049 1.173896
2004-12-17 14:24:51 51°27.508 3°9.806 7.160775 3.356987 32.775646 1.106477
2004-12-17 14:25:51 51°27.539 3°9.866 7.178482 3.349719 32.700143 0.93793
2004-12-17 14:26:51 51°27.537 3°9.939 7.179169 3.35509 32.739877 1.039059
2004-12-17 14:27:51 51°27.521 3°9.995 7.175099 3.350667 32.692793 0.904221
2004-12-17 14:28:51 51°27.5 3°10.041 7.16918 3.354037 32.734084 0.904221
2004-12-17 14:29:51 51°27.458 3°10.097 7.183449 3.350877 32.703078 0.836802
2004-12-17 14:30:51 51°27.39 3°10.125 7.157762 3.346559 32.65713 0.870512
2004-12-17 14:31:51 51°27.321 3°10.119 7.157075 3.349824 32.701283 0.904221
2004-12-17 14:32:51 51°27.262 3°10.086 7.149304 3.352458 32.733007 0.93793
2004-12-17 14:33:51 51°27.215 3°10.038 7.173461 3.353511 32.741207 1.039059
2004-12-17 14:34:51 51°27.175 3°9.985 7.170871 3.356986 32.766017 1.51099
2004-12-17 14:35:51 51°27.144 3°9.931 7.169286 3.353616 32.731927 1.376153
2004-12-17 14:36:51 51°27.118 3°9.877 7.159718 3.343926 32.638219 1.275024
2004-12-17 14:37:51 51°27.096 3°9.824 7.156123 3.354669 32.753756 1.376153
2004-12-17 14:38:51 51°27.078 3°9.771 7.155436 3.350983 32.71944 1.982922
2004-12-17 14:39:51 51°27.058 3°9.72 7.152317 3.35172 32.728228 1.342443
2004-12-17 14:40:51 51°27.041 3°9.669 7.153057 3.353511 32.750031 0.904221
2004-12-17 14:41:51 51°27.026 3°9.622 7.15956 3.352458 32.743433 0.836802
2004-12-17 14:42:51 51°27.013 3°9.574 7.167488 3.352247 32.721909 1.173896
2004-12-17 14:43:51 51°27.003 3°9.513 7.157604 3.343926 32.635821 1.140187
2004-12-17 14:44:51 51°26.986 3°9.454 7.160775 3.353616 32.74315 0.93793
2004-12-17 14:45:51 51°26.971 3°9.396 7.178904 3.345085 32.652362 0.803093
2004-12-17 14:46:51 51°26.961 3°9.337 7.1844 3.357513 32.766104 1.072768
2004-12-17 14:47:51 51°26.954 3°9.278 7.186567 3.358882 32.774511 1.106477
2004-12-17 14:48:51 51°26.946 3°9.219 7.17716 3.347086 32.654835 1.039059
2004-12-17 14:49:51 51°26.936 3°9.16 7.176685 3.354775 32.740464 1.308734
2004-12-17 14:50:51 51°26.921 3°9.102 7.181969 3.3533 32.714889 1.072768
2004-12-17 14:51:51 51°26.901 3°9.046 7.18477 3.343188 32.609472 0.870512
2004-12-17 14:52:51 51°26.882 3°8.987 7.183977 3.354564 32.730972 0.803093
2004-12-17 14:53:51 51°26.868 3°8.93 7.17901 3.352668 32.710451 1.140187
2004-12-17 14:54:51 51°26.859 3°8.873 7.182709 3.359514 32.784562 1.5447
2004-12-17 14:55:51 51°26.855 3°8.818 7.190265 3.354669 32.728107 1.241315
2004-12-17 14:56:51 51°26.85 3°8.763 7.175892 3.350456 32.688113 1.072768
2004-12-17 14:57:51 51°26.844 3°8.708 7.148775 3.351825 32.715744 1.005349
2004-12-17 14:58:51 51°26.832 3°8.653 7.127729 3.338765 32.598319 1.005349
2004-12-17 14:59:51 51°26.811 3°8.601 7.113342 3.338028 32.609514 0.904221
2004-12-17 15:00:51 51°26.785 3°8.551 7.09911 3.335711 32.602796 0.870512
2004-12-17 15:01:51 51°26.754 3°8.506 7.112495 3.334763 32.590121 0.97164
2004-12-17 15:02:51 51°26.734 3°8.48 7.047237 3.32381 32.49614 0.97164
2004-12-17 15:03:51 51°26.721 3°8.472 7.034686 3.310645 32.395606 0.870512
2004-12-17 15:04:51 51°26.711 3°8.471 7.045754 3.317386 32.461565 1.005349
2004-12-17 15:05:51 51°26.678 3°8.357 7.005656 3.316438 32.444103 0.93793
2004-12-17 15:06:51 51°26.515 3°8.165 7.014769 3.313173 32.441378 0.97164
2004-12-17 15:07:51 51°26.33 3°7.973 6.993733 3.303062 32.335609 1.039059
2004-12-17 15:08:51 51°26.148 3°7.783 7.173567 3.279998 32.109909 1.477281
2004-12-17 15:09:51 51°25.968 3°7.592 7.308779 3.338447 32.388611 1.51099
2004-12-17 15:10:51 51°25.793 3°7.391 7.138729 3.301163 32.051745 2.724529
2004-12-17 15:11:51 51°25.62 3°7.191 7.151313 3.263251 31.724493 2.08405
2004-12-17 15:12:51 51°25.447 3°6.991 7.151313 3.293792 32.038039 1.915503
2004-12-17 15:13:51 51°25.274 3°6.792 7.155648 3.252403 31.582974 1.814375
2004-12-17 15:14:51 51°25.101 3°6.594 7.140368 3.25156 31.553872 1.848084
2004-12-17 15:15:51 51°24.929 3°6.397 8.167913 3.302954 32.110167 -0.781249
2004-12-17 15:16:51 51°24.756 3°6.201 7.154855 2.848885 27.157748 2.893076
2004-12-17 15:17:51 51°24.573 3°6.028 7.141637 3.316643 31.97062 2.488563
2004-12-17 15:18:51 51°24.387 3°5.869 7.054279 3.045817 29.203815 -0.680121
2004-12-17 15:19:51 51°24.201 3°5.709 6.942572 2.927713 28.005814 1.409862
2004-12-17 15:20:51 51°24.014 3°5.547 6.932653 2.891403 27.700381 -0.781249
2004-12-17 15:21:51 51°23.829 3°5.384 6.926871 2.784066 26.586897 0.095195
2004-12-17 15:22:51 51°23.65 3°5.219 6.888239 2.453573 23.122721 0.634546
2004-12-17 15:23:51 51°23.475 3°5.053 6.92268 1.857419 17.080578 -0.343027
2004-12-17 15:24:51 51°23.306 3°4.874 6.924006 3.048556 29.388974 -0.74754
2004-12-17 15:25:51 51°23.141 3°4.688 6.911803 3.159104 30.558346 -0.646411
2004-12-17 15:26:51 51°22.982 3°4.49 6.927189 3.100142 29.912833 -0.17448
2004-12-17 15:27:51 51°22.829 3°4.288 6.935942 3.177215 30.735769 -0.646411
2004-12-17 15:28:51 51°22.679 3°4.076 6.622452 3.047297 29.751793 1.612118
2004-12-17 15:29:51 51°22.528 3°3.864 6.645313 3.189015 31.440717 1.275024
2004-12-17 15:30:51 51°22.383 3°3.646 6.716242 3.211128 31.638107 1.578409
2004-12-17 15:31:51 51°22.237 3°3.427 6.757209 3.1927 31.377871 1.578409
2004-12-17 15:32:51 51°22.098 3°3.203 6.738591 3.224607 31.716645 1.645828
2004-12-17 15:33:51 51°21.96 3°2.976 6.681852 3.213445 31.636653 1.612118
2004-12-17 15:34:51 51°21.822 3°2.751 6.58236 3.210497 31.672938 1.612118
2004-12-17 15:35:51 51°21.696 3°2.514 6.534345 3.198809 31.610581 1.679537
2004-12-17 15:36:51 51°21.573 3°2.274 6.477963 3.198494 31.667957 1.679537
2004-12-17 15:37:51 51°21.453 3°2.032 6.439385 3.192071 31.638676 1.713247
2004-12-17 15:38:51 51°21.338 3°1.785 6.400892 3.197968 31.738358 1.713247
2004-12-17 15:39:51 51°21.22 3°1.541 6.392335 3.193651 31.707607 1.746956
2004-12-17 15:40:51 51°21.105 3°1.292 6.397576 3.182068 31.584271 1.814375
2004-12-17 15:41:51 51°20.988 3°1.043 6.379444 3.203339 31.822908 1.780665
2004-12-17 15:42:51 51°20.875 3°0.791 6.355473 3.194283 31.747993 1.679537
2004-12-17 15:43:51 51°20.761 3°0.543 6.343484 3.202497 31.854397 1.746956
2004-12-17 15:44:51 51°20.645 3°0.295 6.340701 3.204708 31.886766 1.612118
2004-12-17 15:45:51 51°20.531 3°0.045 6.333795 3.204603 31.888811 1.679537
2004-12-17 15:46:51 51°20.417 2°59.796 6.326621 3.204393 31.890497 1.645828
2004-12-17 15:47:51 51°20.303 2°59.546 6.331868 3.206183 31.908624 1.612118
2004-12-17 15:48:51 51°20.189 2°59.295 6.340166 3.210289 31.950679 1.746956
2004-12-17 15:49:51 51°20.075 2°59.047 6.33417 3.213027 31.980056 1.612118
2004-12-17 15:50:51 51°19.97 2°58.786 6.34311 3.212817 31.976127 1.645828
2004-12-17 15:51:51 51°19.863 2°58.527 6.333367 3.21387 31.990951 1.645828
2004-12-17 15:52:51 51°19.76 2°58.261 6.34327 3.21387 31.986932 1.612118
2004-12-17 15:53:51 51°19.662 2°57.99 6.34418 3.216608 32.017114 1.645828
2004-12-17 15:54:51 51°19.563 2°57.719 6.337864 3.22082 32.06114 1.645828
2004-12-17 15:55:51 51°19.464 2°57.448 6.350656 3.223663 32.089267 1.578409
2004-12-17 15:56:51 51°19.362 2°57.179 6.360664 3.227981 32.134456 1.477281
2004-12-17 15:57:51 51°19.253 2°56.915 6.37067 3.235247 32.196805 1.578409
2004-12-17 15:58:51 51°19.138 2°56.658 6.398967 3.244409 32.285679 1.51099
2004-12-17 15:59:51 51°19.017 2°56.41 6.400143 3.254518 32.384983 1.5447
2004-12-17 16:00:51 51°18.897 2°56.155 6.40747 3.265155 32.491702 1.713247
2004-12-17 16:01:51 51°18.777 2°55.905 6.425755 3.276844 32.608394 1.679537
2004-12-17 16:02:51 51°18.653 2°55.656 6.447562 3.29043 32.744344 1.780665
2004-12-17 16:03:51 51°18.522 2°55.421 6.4723 3.303911 32.86841 1.949212
2004-12-17 16:04:51 51°18.393 2°55.182 6.523403 3.320024 33.01069 1.915503
2004-12-17 16:05:51 51°18.26 2°54.947 6.580227 3.338245 33.160283 1.848084
2004-12-17 16:06:51 51°18.12 2°54.727 6.65634 3.357414 33.312552 1.949212
2004-12-17 16:07:51 51°17.976 2°54.511 6.735771 3.374793 33.428147 1.915503
2004-12-17 16:08:51 51°17.834 2°54.287 6.804954 3.373001 33.330561 1.679537
2004-12-17 16:09:51 51°17.691 2°54.067 6.868755 3.3888 33.440858 1.713247
2004-12-17 16:10:51 51°17.541 2°53.862 6.908566 3.393118 33.436854 1.612118
2004-12-17 16:11:51 51°17.377 2°53.679 6.949572 3.392591 33.395607 1.376153
2004-12-17 16:12:51 51°17.208 2°53.504 6.980801 3.391959 33.349191 1.275024
2004-12-17 16:13:51 51°17.029 2°53.354 6.996807 3.397015 33.384625 1.342443
2004-12-17 16:14:51 51°16.826 2°53.301 7.01159 3.407338 33.488193 1.308734
2004-12-17 16:15:51 51°16.614 2°53.387 7.016146 3.410919 33.516544 1.477281
2004-12-17 16:16:51 51°16.416 2°53.556 7.03977 3.419662 33.60202 1.241315
2004-12-17 16:17:51 51°16.217 2°53.701 6.977673 3.422716 33.621285 1.072768
2004-12-17 16:18:51 51°16.015 2°53.828 6.867268 3.41092 33.619201 1.005349
2004-12-17 16:19:51 51°15.822 2°54.002 6.861958 3.418189 33.724585 1.072768
2004-12-17 16:20:51 51°15.618 2°54.15 6.733377 3.404495 33.635319 1.207606
2004-12-17 16:21:51 51°15.401 2°54.246 6.564118 3.385115 33.560015 1.915503
2004-12-17 16:22:51 51°15.197 2°54.358 6.521375 3.359943 33.424547 1.848084
2004-12-17 16:23:51 51°14.988 2°54.465 6.564599 3.370159 33.494663 1.241315
2004-12-17 16:24:51 51°14.789 2°54.578 6.698091 3.370686 33.530606 -0.848668
2004-12-17 16:25:51 51°14.599 2°54.72 6.888663 3.373214 33.548458 -0.882377
2004-12-17 16:26:51 51°14.431 2°54.909 7.037122 3.373319 33.547944 -0.882377
2004-12-17 16:27:51 51°14.308 2°55.179 7.170554 3.373635 33.550594 -0.882377
2004-12-17 16:28:51 51°14.201 2°55.344 7.311785 3.373741 33.547567 -0.916087
2004-12-17 16:29:51 51°14.094 2°55.437 7.447924 3.374057 33.549379 -0.882377
2004-12-17 16:30:51 51°14.008 2°55.502 7.592237 3.374478 33.551515 -0.882377
2004-12-17 16:31:51 51°13.935 2°55.551 7.725386 3.375005 33.549787 -0.882377
2004-12-17 16:32:51 51°13.871 2°55.596 7.862452 3.375531 33.548061 -0.882377
2004-12-17 16:33:51 51°13.811 2°55.641 7.988898 3.376374 33.547309 -0.882377
2004-12-17 16:34:51 51°13.769 2°55.692 8.114947 3.377532 33.550879 -0.848668
2004-12-17 16:35:55 51°13.731 2°55.759 8.236075 3.378796 33.553935 -0.848668
2004-12-17 16:36:55 51°13.702 2°55.814 8.383711 3.380376 33.559636 -0.916087
2004-12-17 16:37:55 51°13.675 2°55.865 8.476789 3.382166 33.565983 -0.882377
2004-12-17 16:38:55 51°13.668 2°55.876 8.621925 3.383957 33.574 -0.882377
2004-12-17 16:39:55 51°13.665 2°55.872 8.755343 3.385853 33.582336 -0.916087
2004-12-17 16:40:55 51°13.651 2°55.908 8.831513 3.387854 33.588484 -0.882377
2004-12-17 16:41:55 51°13.644 2°55.929 8.932868 3.389855 33.594629 -0.882377
2004-12-17 16:42:55 51°13.635 2°55.96 9.051795 3.391856 33.600771 -0.882377
2004-12-17 16:43:55 51°13.635 2°55.963 9.139838 3.393963 33.610572 -0.882377
2004-12-17 16:44:55 51°13.653 2°55.927 9.246412 3.396069 33.618698 -0.882377
2004-12-17 16:45:55 51°13.655 2°55.916 9.375211 3.397965 33.623671 -0.916087
2004-12-17 16:46:55 51°13.642 2°55.942 9.469465 3.399966 33.629798 -0.882377
2004-12-17 16:47:55 51°13.621 2°56.01 9.537328 3.401968 33.635088 -0.882377
2004-12-17 16:48:55 51°13.601 2°56.083 9.577757 3.403864 33.640887 -0.882377
2004-12-17 16:49:55 51°13.592 2°56.096 9.735825 3.405865 33.647839 -0.882377
2004-12-17 16:50:55 51°13.587 2°56.102 9.835259 3.407761 33.651132 -0.882377
2004-12-17 16:51:55 51°13.572 2°56.107 9.912084 3.409657 33.656923 -0.882377
2004-12-17 16:52:55 51°13.565 2°56.133 10.02341 3.411552 33.659381 -0.882377
2004-12-17 16:53:55 51°13.551 2°56.155 10.03966 3.413448 33.665167 -0.916087
2004-12-17 16:54:55 51°13.545 2°56.17 10.161588 3.415344 33.67095 -0.882377
2004-12-17 16:55:55 51°13.553 2°56.178 10.223352 3.417135 33.678904 -0.882377
2004-12-17 16:56:55 51°13.54 2°56.196 10.352606 3.418925 33.683529 -0.916087
2004-12-17 16:57:55 51°13.564 2°56.142 10.375476 3.420611 33.688662 -0.916087
2004-12-17 16:58:55 51°13.586 2°56.089 10.48996 3.422296 33.694624 -0.916087
2004-12-17 16:59:55 51°13.595 2°56.079 10.603948 3.423771 33.697449 -0.882377
2004-12-17 17:00:55 51°13.597 2°56.081 10.679047 3.425245 33.699444 -0.882377
2004-12-17 17:01:55 51°13.598 2°56.083 10.802376 3.426931 33.7054 -0.882377
2004-12-17 17:02:55 51°13.597 2°56.086 10.827345 3.427036 33.716517 -0.882377
2004-12-17 17:03:55 51°13.597 2°56.087 10.902246 3.43009 33.67853 -0.916087
2004-12-17 17:04:55 51°13.597 2°56.087 11.015491 3.432934 33.71286 -0.882377
2004-12-17 17:05:55 51°13.597 2°56.087 11.063219 3.435357 33.736798 -0.882377
2004-12-17 17:06:55 51°13.597 2°56.088 11.16609 3.436832 33.739611 -0.882377
2004-12-17 17:07:55 51°13.598 2°56.088 11.250114 3.438517 33.74472 -0.882377
2004-12-17 17:08:55 51°13.597 2°56.088 11.303737 3.439992 33.745045 -0.882377